WX6HNX-5 Weather Reports


time (UTC)temp
C
wind
direction
speed
KPH
gust
KPH
rain 1hr
cm
rain 24hr
cm
rain mn
cm
humidity
%
barometer
mb
20260506213442 25 0 0.0 14.5 0.00 0.00 0.00 44 1016.8
20260506212942 24 277 3.2 14.5 0.00 0.00 0.00 45 1016.8
20260506212444 25 29 4.8 14.5 0.00 0.00 0.00 44 1016.9
20260506211941 24 341 3.2 14.5 0.00 0.00 0.00 44 1016.9
20260506211441 24 214 1.6 16.1 0.00 0.00 0.00 45 1017.0
20260506210942 24 309 4.8 16.1 0.00 0.00 0.00 44 1017.1
20260506210442 24 63 3.2 16.1 0.00 0.00 0.00 45 1017.1
20260506205941 23 82 4.8 19.3 0.00 0.00 0.00 46 1017.1
20260506205441 24 56 9.7 19.3 0.00 0.00 0.00 44 1017.1
20260506204941 24 32 6.4 16.1 0.00 0.00 0.00 45 1017.1
20260506204441 23 19 3.2 16.1 0.00 0.00 0.00 44 1017.2
20260506203941 23 345 6.4 14.5 0.00 0.00 0.00 44 1017.2
20260506203443 23 13 4.8 12.9 0.00 0.00 0.00 45 1017.3
20260506202941 23 0 0.0 14.5 0.00 0.00 0.00 47 1017.3
20260506202441 23 303 4.8 14.5 0.00 0.00 0.00 47 1017.3
20260506201941 23 331 6.4 12.9 0.00 0.00 0.00 45 1017.4
20260506201441 23 59 4.8 12.9 0.00 0.00 0.00 46 1017.4
20260506200942 23 123 4.8 11.3 0.00 0.00 0.00 46 1017.5
20260506200443 23 85 3.2 11.3 0.00 0.00 0.00 46 1017.6
20260506195941 23 311 3.2 12.9 0.00 0.00 0.00 46 1017.6
20260506195441 23 57 3.2 12.9 0.00 0.00 0.00 45 1017.6
20260506194941 23 52 6.4 9.7 0.00 0.00 0.00 46 1017.7
20260506194441 23 69 1.6 14.5 0.00 0.00 0.00 47 1017.7
20260506193941 22 321 4.8 14.5 0.00 0.00 0.00 47 1017.8
20260506193441 22 0 0.0 16.1 0.00 0.00 0.00 49 1017.9
20260506192942 22 142 8.0 16.1 0.00 0.00 0.00 49 1018.0
20260506192441 22 117 3.2 9.7 0.00 0.00 0.00 50 1018.1
20260506191941 22 32 4.8 9.7 0.00 0.00 0.00 51 1018.2
20260506191302 22 85 6.4 16.1 0.00 0.00 0.00 51 1018.3
20260506190802 22 34 4.8 14.5 0.00 0.00 0.00 52 1018.4
20260506190303 21 50 8.0 14.5 0.00 0.00 0.00 54 1018.5
20260506185805 21 44 3.2 12.9 0.00 0.00 0.00 54 1018.4
20260506185306 21 10 1.6 11.3 0.00 0.00 0.00 54 1018.6
20260506184804 21 285 4.8 11.3 0.00 0.00 0.00 54 1018.7
20260506184303 21 50 3.2 11.3 0.00 0.00 0.00 53 1018.7
20260506183803 21 0 0.0 11.3 0.00 0.00 0.00 55 1018.8
20260506183303 22 336 1.6 11.3 0.00 0.00 0.00 53 1018.8
20260506182803 22 154 3.2 8.0 0.00 0.00 0.00 54 1018.7
20260506182306 21 0 0.0 4.8 0.00 0.00 0.00 56 1018.9
20260506181303 21 118 4.8 11.3 0.00 0.00 0.00 56 1019.0
20260506180803 21 124 3.2 9.7 0.00 0.00 0.00 56 1019.1
20260506180302 21 126 3.2 9.7 0.00 0.00 0.00 57 1019.1
20260506175803 21 170 3.2 8.0 0.00 0.00 0.00 57 1019.2
20260506175306 20 141 1.6 6.4 0.00 0.00 0.00 59 1019.2
20260506174802 20 126 3.2 8.0 0.00 0.00 0.00 61 1019.2
20260506174302 19 0 0.0 11.3 0.00 0.00 0.00 63 1019.2
20260506173802 19 291 4.8 12.9 0.00 0.00 0.00 63 1019.3
20260506173302 19 353 4.8 12.9 0.00 0.00 0.00 61 1019.3
20260506172802 19 44 1.6 6.4 0.00 0.00 0.00 63 1019.4
20260506172129 18 319 1.6 8.0 0.00 0.00 0.00 64 1019.5
20260506171631 18 353 3.2 14.5 0.00 0.00 0.00 65 1019.5
20260506171131 18 12 1.6 14.5 0.00 0.00 0.00 66 1019.5
20260506170129 18 241 1.6 9.7 0.00 0.00 0.00 67 1019.5
20260506165630 18 327 3.2 8.0 0.00 0.00 0.00 67 1019.6
20260506165129 17 0 0.0 12.9 0.00 0.00 0.00 68 1019.6
20260506164632 17 343 4.8 12.9 0.00 0.00 0.00 69 1019.7
20260506164129 17 0 0.0 8.0 0.00 0.00 0.00 70 1019.6
20260506163630 17 23 1.6 11.3 0.00 0.00 0.00 71 1019.6
20260506163130 17 271 4.8 14.5 0.00 0.00 0.00 71 1019.7
20260506162629 17 308 6.4 14.5 0.00 0.00 0.00 70 1019.7
20260506162130 17 291 4.8 12.9 0.00 0.00 0.00 71 1019.7
20260506161630 16 280 3.2 16.1 0.00 0.00 0.00 72 1019.7
20260506161129 16 306 8.0 16.1 0.00 0.00 0.00 72 1019.8
20260506160630 16 300 3.2 12.9 0.00 0.00 0.00 72 1019.8
20260506160129 16 312 4.8 14.5 0.00 0.00 0.00 72 1019.8
20260506155630 16 323 4.8 16.1 0.00 0.00 0.00 73 1019.8
20260506155129 16 2 4.8 16.1 0.00 0.00 0.00 73 1019.8
20260506154630 16 332 4.8 14.5 0.00 0.00 0.00 73 1019.7
20260506154130 16 1 4.8 16.1 0.00 0.00 0.00 73 1019.7
20260506153629 15 1 8.0 16.1 0.00 0.00 0.00 74 1019.7
20260506153130 15 355 8.0 17.7 0.00 0.00 0.00 75 1019.7
20260506152630 15 326 6.4 17.7 0.00 0.00 0.00 75 1019.7
20260506152129 15 335 3.2 16.1 0.00 0.00 0.00 76 1019.8
20260506151632 15 329 4.8 12.9 0.00 0.00 0.00 76 1019.8
20260506151129 14 318 6.4 12.9 0.00 0.00 0.00 77 1019.9
20260506150629 14 311 6.4 12.9 0.00 0.00 0.00 77 1019.8
20260506150129 14 308 6.4 12.9 0.00 0.00 0.00 76 1019.8
20260506145630 14 330 4.8 12.9 0.00 0.00 0.00 76 1019.8
20260506144943 14 310 4.8 8.0 0.00 0.00 0.00 78 1019.8
20260506144443 13 310 4.8 8.0 0.00 0.00 0.00 79 1019.7
20260506143943 13 282 3.2 6.4 0.00 0.00 0.00 79 1019.7
20260506143443 13 0 0.0 4.8 0.00 0.00 0.00 80 1019.7
20260506142943 13 0 0.0 0.0 0.00 0.00 0.00 81 1019.7
20260506142443 12 0 0.0 3.2 0.00 0.00 0.00 82 1019.6
20260506141944 12 0 0.0 3.2 0.00 0.00 0.00 83 1019.5
20260506141443 12 0 0.0 4.8 0.00 0.00 0.00 83 1019.5
20260506140943 12 227 1.6 6.4 0.00 0.00 0.00 83 1019.4
20260506135943 11 253 1.6 4.8 0.00 0.00 0.00 84 1019.2
20260506135442 11 0 0.0 9.7 0.00 0.00 0.00 84 1019.2
20260506134943 11 257 1.6 9.7 0.00 0.00 0.00 84 1019.1
20260506134443 11 256 3.2 8.0 0.00 0.00 0.00 84 1019.1
20260506133943 11 234 3.2 8.0 0.00 0.00 0.00 84 1019.1
20260506133443 11 241 1.6 6.4 0.00 0.00 0.00 84 1019.0
20260506132942 11 234 3.2 6.4 0.00 0.00 0.00 84 1019.0
20260506132443 11 240 3.2 4.8 0.00 0.00 0.00 83 1019.0
20260506131942 11 0 0.0 4.8 0.00 0.00 0.00 83 1018.9
20260506131443 11 0 0.0 4.8 0.00 0.00 0.00 83 1018.9
20260506130943 11 0 0.0 4.8 0.00 0.00 0.00 82 1018.8
20260506130442 11 308 1.6 4.8 0.00 0.00 0.00 82 1018.8
20260506125704 11 0 0.0 4.8 0.00 0.00 0.00 81 1018.7
20260506125204 11 316 1.6 4.8 0.00 0.00 0.00 81 1018.6
20260506124704 11 316 1.6 6.4 0.00 0.00 0.00 81 1018.6
20260506124204 11 315 1.6 6.4 0.00 0.00 0.00 81 1018.6
20260506123704 12 329 3.2 6.4 0.00 0.00 0.00 81 1018.5
20260506123204 12 327 1.6 4.8 0.00 0.00 0.00 81 1018.5
20260506122705 12 342 1.6 4.8 0.00 0.00 0.00 81 1018.5
20260506122205 12 323 1.6 6.4 0.00 0.00 0.00 81 1018.4
20260506121705 12 328 3.2 6.4 0.00 0.00 0.00 80 1018.4
20260506121206 12 322 3.2 6.4 0.00 0.00 0.00 80 1018.3
20260506120704 12 319 3.2 8.0 0.00 0.00 0.00 79 1018.2
20260506120204 12 317 1.6 8.0 0.00 0.00 0.00 79 1018.2
20260506115704 12 318 4.8 8.0 0.00 0.00 0.00 78 1018.1
20260506115204 12 315 3.2 6.4 0.00 0.00 0.00 78 1018.1
20260506114704 13 317 3.2 6.4 0.00 0.00 0.00 77 1018.1
20260506114204 13 311 3.2 6.4 0.00 0.00 0.00 77 1018.1
20260506113704 13 293 1.6 6.4 0.00 0.00 0.00 76 1018.0
20260506113204 13 280 3.2 6.4 0.00 0.00 0.00 76 1018.0
20260506112704 13 275 1.6 4.8 0.00 0.00 0.00 75 1018.0
20260506112204 13 0 0.0 4.8 0.00 0.00 0.00 75 1018.0
20260506111705 13 0 0.0 8.0 0.00 0.00 0.00 75 1018.0
20260506111204 13 275 3.2 9.7 0.00 0.00 0.00 75 1018.0
20260506110704 13 280 3.2 9.7 0.00 0.00 0.00 74 1018.0
20260506110204 13 283 4.8 11.3 0.00 0.00 0.00 74 1018.0
20260506105204 13 289 4.8 12.9 0.00 0.00 0.00 75 1018.0
20260506104704 13 290 4.8 12.9 0.00 0.00 0.00 75 1018.0
20260506104204 13 281 3.2 9.7 0.00 0.00 0.00 75 1018.0
20260506103704 13 278 6.4 9.7 0.00 0.00 0.00 76 1018.0
20260506103204 12 279 4.8 9.7 0.00 0.00 0.00 76 1017.9
20260506102204 12 277 4.8 9.7 0.00 0.00 0.00 77 1017.8
20260506101704 12 269 4.8 11.3 0.00 0.00 0.00 77 1017.8
20260506101204 12 280 6.4 11.3 0.00 0.00 0.00 77 1017.8
20260506100705 11 266 3.2 6.4 0.00 0.00 0.00 77 1017.7
20260506100204 11 267 3.2 4.8 0.00 0.00 0.00 77 1017.8
20260506095204 11 267 3.2 6.4 0.00 0.00 0.00 78 1017.7
20260506094704 11 253 3.2 6.4 0.00 0.00 0.00 78 1017.7
20260506094204 11 0 0.0 3.2 0.00 0.00 0.00 77 1017.7
20260506093703 11 0 0.0 3.2 0.00 0.00 0.00 77 1017.7
20260506093205 11 0 0.0 3.2 0.00 0.00 0.00 77 1017.6
20260506092204 11 0 0.0 3.2 0.00 0.00 0.00 78 1017.6
20260506091704 11 0 0.0 3.2 0.00 0.00 0.00 77 1017.6
20260506091204 11 0 0.0 3.2 0.00 0.00 0.00 77 1017.6
20260506090704 11 0 0.0 1.6 0.00 0.00 0.00 78 1017.6
20260506090203 11 0 0.0 1.6 0.00 0.00 0.00 78 1017.6
20260506084704 11 0 0.0 4.8 0.00 0.00 0.00 78 1017.6
20260506084204 11 251 1.6 6.4 0.00 0.00 0.00 78 1017.7
20260506083705 11 248 1.6 6.4 0.00 0.00 0.00 77 1017.6
20260506083204 11 0 0.0 11.3 0.00 0.00 0.00 77 1017.7
20260506082203 11 269 3.2 6.4 0.00 0.00 0.00 77 1017.5
20260506081703 11 280 1.6 4.8 0.00 0.00 0.00 77 1017.5
20260506081203 11 281 1.6 6.4 0.00 0.00 0.00 77 1017.5
20260506080703 11 279 3.2 6.4 0.00 0.00 0.00 76 1017.5
20260506080205 11 276 3.2 4.8 0.00 0.00 0.00 75 1017.4
20260506073205 12 277 3.2 6.4 0.00 0.00 0.00 76 1017.1
20260506072203 12 0 0.0 4.8 0.00 0.00 0.00 78 1016.9
20260506071704 12 0 0.0 4.8 0.00 0.00 0.00 78 1016.9
20260506071204 12 300 1.6 4.8 0.00 0.00 0.00 77 1016.8
20260506070703 13 283 1.6 6.4 0.00 0.00 0.00 76 1016.8
20260506070204 13 287 3.2 6.4 0.00 0.00 0.00 75 1016.7
20260506062021 15 0 0.0 0.0 0.00 0.00 0.00 74 1016.2
20260506061521 15 0 0.0 0.0 0.00 0.00 0.00 73 1016.1
20260506061022 15 0 0.0 0.0 0.00 0.00 0.00 73 1016.2
20260506060522 15 0 0.0 0.0 0.00 0.00 0.00 73 1016.1
20260506051021 16 0 0.0 0.0 0.00 0.00 0.00 69 1015.9
20260506050521 16 0 0.0 0.0 0.00 0.00 0.00 69 1015.8
20260506045021 16 0 0.0 0.0 0.00 0.00 0.00 68 1015.7
20260506044521 16 0 0.0 0.0 0.00 0.00 0.00 68 1015.6
20260506044020 16 0 0.0 0.0 0.00 0.00 0.00 68 1015.5
20260506043520 16 0 0.0 0.0 0.00 0.00 0.00 68 1015.4
20260506043021 16 0 0.0 0.0 0.00 0.00 0.00 67 1015.4
20260506042520 16 0 0.0 0.0 0.00 0.00 0.00 66 1015.3
20260506042021 16 0 0.0 0.0 0.00 0.00 0.00 66 1015.2
20260506041520 16 0 0.0 0.0 0.00 0.00 0.00 66 1015.2
20260506041020 16 0 0.0 0.0 0.00 0.00 0.00 65 1015.2
20260506040521 17 0 0.0 0.0 0.00 0.00 0.00 65 1015.2
20260506040021 17 0 0.0 0.0 0.00 0.00 0.00 64 1015.1
20260506035521 17 0 0.0 0.0 0.00 0.00 0.00 63 1015.0
20260506035021 17 0 0.0 0.0 0.00 0.00 0.00 63 1015.0
20260506034520 17 0 0.0 0.0 0.00 0.00 0.00 62 1014.9
20260506034020 17 0 0.0 0.0 0.00 0.00 0.00 61 1014.8
20260506033520 17 0 0.0 0.0 0.00 0.00 0.00 61 1014.7
20260506033020 17 0 0.0 0.0 0.00 0.00 0.00 61 1014.7
20260506032521 17 0 0.0 0.0 0.00 0.00 0.00 60 1014.6
20260506032021 17 0 0.0 0.0 0.00 0.00 0.00 60 1014.5
20260506031503 17 0 0.0 0.0 0.00 0.00 0.00 60 1014.5
20260506031002 17 0 0.0 0.0 0.00 0.00 0.00 60 1014.3
20260506030502 18 0 0.0 0.0 0.00 0.00 0.00 59 1014.3
20260506030002 18 0 0.0 0.0 0.00 0.00 0.00 59 1014.3
20260506025505 18 0 0.0 0.0 0.00 0.00 0.00 58 1014.2
20260506025003 18 0 0.0 0.0 0.00 0.00 0.00 58 1014.0
20260506024503 18 0 0.0 3.2 0.00 0.00 0.00 58 1014.1
20260506024003 18 0 0.0 3.2 0.00 0.00 0.00 57 1014.0
20260506023002 18 0 0.0 1.6 0.00 0.00 0.00 57 1013.9
20260506022502 18 0 0.0 3.2 0.00 0.00 0.00 57 1013.9
20260506022002 18 0 0.0 4.8 0.00 0.00 0.00 56 1013.9
20260506021502 18 0 0.0 6.4 0.00 0.00 0.00 56 1013.8
20260506021002 19 236 3.2 6.4 0.00 0.00 0.00 55 1013.9
20260506020502 19 241 1.6 9.7 0.00 0.00 0.00 54 1013.8
20260506020002 20 265 4.8 9.7 0.00 0.00 0.00 53 1013.8
20260506015502 20 256 1.6 9.7 0.00 0.00 0.00 53 1013.8
20260506015002 20 254 1.6 9.7 0.00 0.00 0.00 54 1013.7
20260506014502 20 232 1.6 8.0 0.00 0.00 0.00 53 1013.8
20260506014002 20 194 3.2 6.4 0.00 0.00 0.00 52 1013.7
20260506013502 20 0 0.0 4.8 0.00 0.00 0.00 51 1013.8
20260506013002 20 0 0.0 4.8 0.00 0.00 0.00 52 1013.7
20260506012502 21 272 1.6 4.8 0.00 0.00 0.00 49 1013.7
20260506012001 21 0 0.0 4.8 0.00 0.00 0.00 49 1013.7
20260506011502 21 0 0.0 3.2 0.00 0.00 0.00 50 1013.7
20260506011001 21 0 0.0 3.2 0.00 0.00 0.00 50 1013.7
20260506010502 20 0 0.0 8.0 0.00 0.00 0.00 51 1013.7
20260506010001 20 0 0.0 8.0 0.00 0.00 0.00 51 1013.8
20260506005501 20 334 1.6 6.4 0.00 0.00 0.00 52 1013.7
20260506005001 20 0 0.0 3.2 0.00 0.00 0.00 52 1013.6
20260506004503 20 0 0.0 6.4 0.00 0.00 0.00 53 1013.6
20260506004002 20 319 1.6 6.4 0.00 0.00 0.00 54 1013.6
20260506003501 19 0 0.0 6.4 0.00 0.00 0.00 55 1013.6
20260506003001 19 329 1.6 6.4 0.00 0.00 0.00 56 1013.6
20260506002502 18 302 3.2 6.4 0.00 0.00 0.00 56 1013.7
20260506002002 18 0 0.0 6.4 0.00 0.00 0.00 56 1013.7
20260506001503 18 281 1.6 6.4 0.00 0.00 0.00 56 1013.7
20260506001002 18 272 4.8 9.7 0.00 0.00 0.00 56 1013.8
20260506000503 18 294 3.2 9.7 0.00 0.00 0.00 56 1013.8
20260506000001 18 0 0.0 6.4 0.00 0.00 0.00 56 1013.8
20260505235501 18 0 0.0 6.4 0.00 0.00 0.00 56 1013.8
20260505235001 18 333 3.2 8.0 0.00 0.00 0.00 56 1013.8
20260505234502 18 347 3.2 8.0 0.00 0.00 0.00 56 1013.9
20260505234002 18 357 3.2 12.9 0.00 0.00 0.00 56 1014.0
20260505233504 18 2 4.8 12.9 0.00 0.00 0.00 56 1014.0
20260505233004 18 0 0.0 8.0 0.00 0.00 0.00 56 1014.0
20260505232502 18 318 3.2 8.0 0.00 0.00 0.00 56 1014.0
20260505232002 18 328 3.2 8.0 0.00 0.00 0.00 57 1014.0
20260505231501 18 312 3.2 8.0 0.00 0.00 0.00 56 1013.9
20260505231002 18 302 1.6 6.4 0.00 0.00 0.00 57 1014.0
20260505230002 18 340 1.6 8.0 0.00 0.00 0.00 59 1014.0
20260505225501 18 360 3.2 9.7 0.00 0.00 0.00 60 1014.1
20260505225001 18 307 6.4 9.7 0.00 0.00 0.00 61 1014.2
20260505224502 18 0 0.0 6.4 0.00 0.00 0.00 60 1014.2
20260505224002 18 52 3.2 8.0 0.00 0.00 0.00 61 1014.3
20260505223502 18 326 1.6 8.0 0.00 0.00 0.00 61 1014.3
20260505223001 18 0 0.0 8.0 0.00 0.00 0.00 62 1014.4
20260505222501 17 0 0.0 8.0 0.00 0.00 0.00 63 1014.3
20260505222003 17 0 0.0 11.3 0.00 0.00 0.00 67 1014.3
20260505221502 17 93 3.2 16.1 0.00 0.00 0.00 69 1014.4
20260505221002 17 79 4.8 16.1 0.00 0.00 0.00 71 1014.4
20260505220501 17 77 9.7 16.1 0.00 0.00 0.00 69 1014.5
20260505220001 17 78 9.7 17.7 0.00 0.00 0.00 67 1014.5
20260505215501 17 77 9.7 17.7 0.00 0.00 0.00 66 1014.6
20260505214912 17 60 9.7 19.3 0.00 0.00 0.00 67 1014.7
20260505214413 17 59 11.3 17.7 0.00 0.00 0.00 68 1014.7
20260505213913 17 73 11.3 20.9 0.00 0.00 0.00 67 1014.8